Погода METAR - Абакан

Код аэропорта ICAO:
Кемерово, Абакан, Красноярск, Новосибирск
Код METAR: UNAA 030900Z 01004MPS CAVOK 24/15 Q1014 R02/090265 NOSIG RMK QFE738
TAF UNAA 030751Z 0309/0409 02003G10MPS 9999 SCT030CB 
     TEMPO 0309/0316 -SHRA 
     FM031800 01003MPS 3200 BR SCT011 
     FM040200 03003G10MPS 9999 SCT025CB
       

Погода - Сейчас

Время: 2020-08-03 16:00, местное
Направление ветра: Север (10°)
Скорость ветра: 4 м/с
Видимость: более 10км, отсутствие осадков и облаков
Температура: 24°C
Точка росы: 15°C
Атмосферное давление: 1014 гПа

Архив погоды

Время, местное Направление Скорость, м/с Температура, °C Точка росы, °C Давление, гПа
2020-08-03 16:00 С (10°) 4 24 15 1014
2020-08-02 06:00 Штиль 0 14 13 1018
2020-07-31 22:30 Штиль 0 15 14 1015
2020-07-31 07:30 З (280°) 3 16 13 1013
2020-07-27 06:00 ЗЮЗ (260°) 4 18 15 1007
2020-07-26 09:30 ЮЮЗ (200°) 5 20 14 1007
2020-07-26 03:00 Переменный 1 18 14 1006
2020-07-25 17:00 ЮЗ (230°) 3 25 18 1006
2020-07-25 10:30 ССВ (20°) 1 20 11 1007
2020-07-25 06:30 Штиль 0 15 13 1008
2020-07-24 06:30 С (360°) 3 15 12 1010
2020-07-23 22:00 СЗ (320°) 2 18 14 1006
2020-07-23 02:00 ССЗ (340°) 2 14 13 1006
2020-07-20 13:30 В (100°) 2 27 10 1002
2020-07-22 19:00 СЗ (310°) 1 18 16 1004
2020-07-22 18:00 Штиль 0 19 16 1004
2020-07-22 01:00 ССЗ (340°) 1 17 16 999
2020-07-21 19:00 С (350°) 7 18 17 999
2020-07-20 15:30 Штиль 0 28 6 1001
2020-07-20 09:30 Переменный 1 20 10 1005
2020-07-19 07:00 Ю (180°) 1 13 10 1011
2020-07-19 01:30 Штиль 0 11 10 1013
2020-07-18 14:30 СВ (40°) 5 21 10 1015
2020-07-18 08:00 С (360°) 4 17 11 1015
2020-07-18 06:30 С (350°) 4 15 11 1015
2020-07-16 03:00 ССЗ (330°) 2 9 7 1019
2020-07-14 06:30 ССЗ (340°) 2 19 16 1007
2020-07-13 16:30 ЮЮВ (150°) 2 23 16 1007
2020-07-12 08:30 Переменный 1 19 14 1011
2020-07-10 12:00 ЮЮЗ (200°) 7 24 16 996
2020-07-09 01:00 Штиль 0 15 14 1010
2020-07-08 00:30 СЗ (310°) 2 17 16 1009
2020-07-07 17:00 ССЗ (330°) 2 24 16 1005
2020-07-07 04:00 Штиль 0 14 14 1004
2020-07-07 01:00 ЗЮЗ (250°) 1 15 15 1004
2020-07-06 02:30 З (280°) 2 17 15 1003
2020-07-05 18:00 С (360°) 3 26 18 1003
2020-07-04 12:00 СЗ (300°) 2 26 17 1006
2020-07-03 18:00 СЗ (320°) 3 27 18 1007
2020-07-01 05:00 Переменный 1 13 12 1012
2020-06-29 08:30 ССЗ (340°) 3 16 13 1015
2020-06-29 04:00 СЗ (320°) 1 16 15 1016
2020-06-28 04:00 ЗСЗ (290°) 1 15 14 1002
2020-06-28 03:30 Штиль 0 15 14 1002
2020-06-27 06:30 Штиль 0 14 13 1002
2020-06-26 04:00 Штиль 0 16 15 1009
2020-06-25 17:30 С (10°) 4 21 16 1007
2020-06-22 11:30 ЮЗ (210°) 2 12 10 1013